1st Responders/1st Detectors/Storm Spotters Weather Summary for Bullitt County, KY

Forecast Maps


Reg. NEXRAD Animation


National Fire Danger: Day 1 & 2 Map

Current NWS Watch/Warnings

SPC Convective Day 1 Outlook


Day 2 Outlook

(Click images to enlarge|Page will refresh every 5 minutes)
UK Ag. Weather Center Desktop Severe Weather Service[HERE]
Bullitt County, KY Hazardous Weather Outlook Webcast
(9 AM to 9 PM Mon-Fri)
[Fast]
[Dial-up]


UKAWC 1st Detectors/1st Responders Precision Weather Forecast For BULLITT County, Kentucky
(based on the NWS County Digital Forecast)

ISSUED AT 20:00 UTC ON THURSDAY SEP 20 2018
DAY THURSDAY
EDT 3HR 5P 6P 7P
MAX/MIN -- -- 92°
TEMP 90° 90° 88°
SKY COVER 36% 28% 20%
Clouds
DEW PT 68° 70° 70°
RH 48% 51% 54%
POP 12HR -- -- --
RAIN/SNOW (liq.equ) -- -- --
SNOWFALL -- -- --
WIND SPEED(MPH) 6 6 5
WIND Gust(MPH) 7 7 7
WIND DIR S S S
DEW -- -- --
HeatIndex 95 95 93
Rain Showers -- -- --
Thunder Storm -- -- --
WIND CHILL -- -- --
SPRAY COND
DRY COND
LIVESTOCK HEATSTRESS 81.08 81.59 80.61



DAY FRIDAY SATURDAY SUNDAY MONDAY TUESDAY WEDNESDAY
EDT 6HR 8P 9P 10P 11P MIDN 1A 2A 3A 4A 5A 6A 7A 8A 9A 10A 11A NOON 1P 2P 3P 4P 5P 6P 7P 8P 9P 10P 11P MIDN 1A 2A 3A 4A 5A 8A 11A 2P 5P 8P 2A 8A 2P 8P 2A 8A 2P 8P 2A 8A 2P 8P 2A 8A 2P 8P
MAX/MIN -- -- -- -- -- -- -- -- -- -- -- -- 72° -- -- -- -- -- -- -- -- -- -- 88° -- -- -- -- -- -- -- -- -- -- 61° -- -- 70° -- -- 59° 72° -- -- 59° 77° -- -- 65° 79° -- -- 65° 74° --
TEMP 85° 83° 79° 79° 77° 76° 76° 76° 74° 74° 74° 72° 74° 76° 79° 83° 85° 88° 88° 88° 88° 86° 85° 81° 79° 77° 76° 74° 72° 72° 70° 68° 67° 65° 61° 65° 68° 68° 65° 63° 59° 70° 67° 61° 61° 76° 72° 68° 67° 79° 72° 67° 65° 74° 70°
SKY COVER 12% 13% 14% 14% 15% 16% 17% 19% 21% 23% 25% 28% 30% 34% 42% 46% 49% 56% 59% 59% 59% 59% 60% 63% 69% 72% 78% 81% 82% 84% 85% 85% 87% 88% 97% 97% 95% 97% 96% 84% 76% 64% 59% 68% 71% 68% 65% 75% 76% 73% 69% 75% 76% 81% 68%
Clouds
DEW PT 70° 70° 70° 68° 68° 68° 68° 67° 67° 67° 67° 67° 67° 67° 68° 70° 70° 70° 70° 70° 70° 70° 70° 70° 70° 70° 70° 68° 67° 67° 65° 63° 61° 59° 58° 58° 58° 58° 58° 58° 58° 61° 61° 58° 61° 67° 65° 65° 65° 68° 67° 65° 63° 63° 61°
RH 60% 65% 71% 71% 74% 75% 76% 76% 78% 79% 78% 81% 79% 76% 71% 65% 59% 55% 55% 55% 56% 58% 62% 69% 72% 76% 81% 84% 84% 84% 80% 81% 80% 84% 87% 75% 70% 70% 81% 86% 96% 70% 80% 89% 96% 70% 76% 89% 93% 71% 81% 93% 96% 68% 73%
POP 12HR 1% -- -- -- -- -- -- -- -- -- -- -- 1% -- -- -- -- -- -- -- -- -- -- -- 90% -- -- -- -- -- -- -- -- -- 56% -- -- -- 38% -- 37% -- 36% -- 34% -- 40% -- 35% -- 48% -- 56% -- 38%
RAIN/SNOW (liq.equ) 0.00in -- -- -- -- -- 0.00in -- -- -- -- -- 0.00in -- -- -- -- -- 0.01in -- -- -- -- -- 0.06in -- -- -- -- -- 0.26in -- -- -- 0.00in -- 0.06in -- 0.05in -- -- -- -- -- -- -- -- -- -- -- -- -- -- -- --
SNOWFALL 0in -- -- -- -- -- 0in -- -- -- -- -- 0in -- -- -- -- -- 0in -- -- -- -- -- 0in -- -- -- -- -- 0in -- -- -- 0in -- 0in -- 0in -- -- -- -- -- -- -- -- -- -- -- -- -- -- -- --
WIND SPEED(MPH) 2 1 2 2 2 2 5 2 5 5 6 6 6 7 8 9 9 9 9 9 8 9 7 7 6 5 5 5 6 7 7 7 7 7 7 7 7 7 6 6 7 7 6 5 5 7 7 7 7 8 8 7 7 9 7
WIND DIR S S S S S S S S S S S S S S SW SW SW SW SW SW SW SW SW SW SW W NW NW N N N N N N NE NE NE NE NE NE NE E E E E S SE S S S S SW SW W NW
HeatIndex 89 87 83 79 77 76 76 76 74 74 74 72 74 76 79 87 90 93 95 95 94 92 90 86 83 77 76 74 72 72 70 68 67 65 61 65 68 68 65 63 59 70 67 61 61 76 72 68 67 79 72 67 65 74 70
Rain Showers -- -- -- -- -- -- -- -- -- -- -- -- -- -- -- Slight Chance Chance Likely Definite Definite Chance Chance Chance Likely Likely Likely Likely Likely Likely Likely Chance Chance Chance Chance Chance Chance Chance Chance Chance Chance Chance Chance Slight Chance Chance Chance Chance Chance Chance Chance Chance Chance Likely Chance Chance Slight Chance
Thunder Storm -- -- -- -- -- -- -- -- -- -- -- -- -- -- -- Slight Chance Slight Chance Slight Chance Slight Chance Slight Chance Slight Chance Chance Chance Chance Chance Chance Chance Chance Chance Chance -- -- -- -- -- -- -- -- -- Chance Chance Chance Slight Chance Chance Chance Chance Chance Chance Chance Chance Chance Likely Chance Chance Slight Chance
WIND CHILL -- -- -- -- -- -- -- -- -- -- -- -- -- -- -- -- -- -- -- -- -- -- -- -- -- -- -- -- -- -- -- -- -- -- -- -- -- -- -- -- -- -- -- -- -- -- -- -- -- -- -- -- -- -- --
SPRAY COND
DRY COND
LIVESTOCK HEATSTRESS 79.24 78.34 75.78 75.78 74.40 73.64 73.73 73.73 72.16 72.24 72.16 70.62 72.24 73.73 75.78 78.34 79.09 80.77 80.77 80.77 80.93 79.72 79.52 77.21 75.89 74.60 74.20 72.66 70.84 70.84 68.77 67.04 66.10 64.45 60.84 64.15 66.48 66.48 64.35 62.68 59.00 68.15 66.10 60.87 60.95 73.16 70.26 67.44 66.68 75.78 70.62 66.68 64.86 71.32 68.34

Click on individual weather variable above in left-hand column (ie., TEMP, RH, QPF 12HR) to view state forecast maps






NWS 48 Hr. Forecast Maps,

Regional Hourly Observations For BULLITT County, Kentucky
Issued at 400 PM EDT THU SEP 20 2018
NORTH CENTRAL KENTUCKY
  
CITY           SKY/WX    TMP DP  RH WIND       PRES   REMARKS
LOUISVILLE/SDF FAIR      94  67  41 W10       30.01F HX  97           
LOUISVILLE/LOU FAIR      94  69  44 S8        30.01F HX  99           
FORT KNOX      FAIR      93  66  41 S7        30.03S HX  95           


Current NOWCAST not available:
Nowcasts are not issued routinely during fair weather. Only when
precipitation or other significant weather is occuring in this county will these
forecasts be issued. Currently, there is no short term forecast in effect.


Fire Weather Forecast For BULLITT County, KY
Provided by the National Weather Service:

Issued at: Thu Sep 20 16:05:01 EDT 2018

314 AM EDT Thu Sep 20 2018

                      Today        Tonight      Fri          

CLOUD COVER           MClear       MClear       PCldy        
PRECIP TYPE           NONE         NONE         tstms        
CHANCE PRECIP (%)     0            0            50           
TEMP (24H TREND)      93 (+2)      70 (0)       87           
RH % (24H TREND)      46 (-3)      88 (-8)      56           
20FTWND-VAL/AM(MPH)   Lgt/Var                   SW  7        
20FTWND-RDG/PM(MPH)   S  5         Lgt/Var      SW  8        
PRECIP AMOUNT         0.00         0.00         0.07         
MIXING HGT(FT-AGL/MSL)6495                      5629         
TRANSPORT WND (MPH)   SW 10                     SW 21        
VENT RATE (KT-FT)     61770                     105292       
DISPERSION            Good                      Excellent    
DSI                   SLGT UNSTBL  SLGT UNSTBL  SLGT UNSTBL  
LAL                   1            1            3            
HAINES INDEX          3            3            3            
ADI EARLY             28 FAIR      3 VERY POOR  39 FAIR      
ADI LATE              49 GEN GOOD  4 VERY POOR  64 GOOD      
MAX LVORI EARLY       7            4            5            
MAX LVORI LATE        1            5            3            

REMARKS...ADI IS ATMOSPHERIC DISPERSION INDEX BY LAVDAS.        
LVORI IS LOW VISIBILITY OCCURRENCE RISK INDEX.

.SATURDAY...Mostly cloudy with a 50 percent chance of showers and
thunderstorms. Lows in the lower 60s. Highs around 70. Southwest
winds around 5 mph. 
.SUNDAY...Mostly cloudy. A 50 percent chance of showers and
thunderstorms. Lows in the upper 50s. Highs in the lower 70s.
Northeast winds around 5 mph. 
.MONDAY...Mostly cloudy. A 50 percent chance of showers and
thunderstorms. Lows around 60. Highs in the upper 70s. Southeast
winds up to 5 mph. 
.TUESDAY...Mostly cloudy with a 50 percent chance of showers and
thunderstorms. Lows in the mid 60s. Highs in the upper 70s. South
winds 5 to 10 mph. 
.WEDNESDAY...Showers likely and chance of thunderstorms. Lows in
the mid 60s. Highs in the mid 70s. West winds 5 to 10 mph. 

SPC's Fire Weather Web Tool (Excellent!), SPC's Fire Weather Outlooks, NWS Fire Weather WEB, Fire Danger Class Map,
Keetch-Byram Drought Index, ROMAN Web, Haines Index ,
WFAS's 10-hr Dead Fuel Moist., WFAS's 100-hr Dead Fuel Moist., Probablity of Ignition, Visual blackness Map, Palmer Drought Index, HPC's Rainfall Forecast Maps


Hazardous Weather Outlook For BULLITT County, Kentucky
352 PM EDT Thu Sep 20 2018 /252 PM CDT Thu Sep 20 2018/

 DAY ONE  Tonight.

No hazardous weather is expected at this time.

 DAYS TWO THROUGH SEVEN  Friday through Wednesday.

Scattered to numberses thunderstorms are expected Friday afternoon
and night across the area as a cold front drops south across the area.
A few strong storms are possible over south-central Indiana and 
north-central and east-central Kentucky. Locally strong wind gusts, 
brief heavy rainfall, and lightning are the main hazards. 

Scattered to numerous thunderstorms are expected Monday into 
Wednesday within a moist unstable air mass across the region and as
another cold front moves through the region Wednesday. Total 
rainfall amounts of 2 to 3 inches with isolated higher amounts are 
possible through Wednesday. A few strong storms also are possible 
Tuesday afternoon or night along the front. Localized flooding is 
possible where storms move over the same locations.

 SPOTTER INFORMATION STATEMENT  

Spotter activation may be required late Friday afternoon and 
evening.

Latest BULLITT County, Kentucky Watches, Warnings and Advisories.
Additional Drought Info.: UKAWC Drought Page, Kentucky Drought Watch


7-Day Forecast For BULLITT County, KY

TONIGHT
Mostly clear. Lows in the lower 70s. South winds up to 10 mph.

FRIDAY
Showers likely and slight chance of thunderstorms. Highs in the upper 80s. Southwest winds 5 to 15 mph. Chance of precipitation 70 percent.

FRIDAY NIGHT
Showers likely and chance of thunderstorms. Lows in the lower 60s. Northwest winds 5 to 10 mph. Chance of precipitation 70 percent.

SATURDAY
Cloudy with a 40 percent chance of showers. Highs around 70. Northeast winds 5 to 10 mph.

SATURDAY NIGHT
Cloudy with a 50 percent chance of showers. Lows in the upper 50s. Northeast winds 5 to 10 mph.

SUNDAY
Mostly cloudy with a 50 percent chance of showers. Highs in the lower 70s.

SUNDAY NIGHT
Mostly cloudy with a 40 percent chance of showers. Lows in the lower 60s.

MONDAY
Mostly cloudy with a 50 percent chance of showers and thunderstorms. Highs in the upper 70s.

MONDAY NIGHT
Mostly cloudy with chance of showers and slight chance of thunderstorms. Lows in the upper 60s. Chance of precipitation 40 percent.

TUESDAY
Mostly cloudy with a 50 percent chance of showers and thunderstorms. Highs in the lower 80s.

TUESDAY NIGHT
Showers likely and chance of thunderstorms. Lows in the mid 60s. Chance of precipitation 70 percent.

WEDNESDAY
Mostly cloudy with chance of showers and slight chance of thunderstorms. Highs in the lower 70s. Chance of precipitation 40 percent.

WEDNESDAY NIGHT
Partly cloudy. Lows in the mid 50s.

THURSDAY
Partly cloudy. Highs in the lower 70s.

Ag Weather Center, Department of Biosystems & Agricultural Engineering, University of Kentucky